Wind_Speed
27 28 28 28 28 28 28 28 28 28 29 30 29 28 28 28 28 28 28 28 28 29 30 31 32 33 34 36 37 38 39 40 40 40 40 40 40 41 42 42 42 42 42 43
27 27 26 26 27 28 28 27 27 28 29 29 29 28 27 27 28 28 27 27 28 28 29 30 32 33 34 35 36 37 38 39 39 40 41 41 42 42 42 44 44 44 44 43
27 26 26 26 26 27 28 27 26 27 28 28 29 28 27 26 27 27 27 27 29 29 30 30 31 32 33 34 36 36 37 38 39 40 42 43 43 44 44 44 45 45 46 46
26 25 26 26 25 26 26 26 26 26 28 28 28 29 27 26 26 27 28 28 29 30 30 31 32 34 34 35 36 36 36 37 39 40 41 43 44 44 45 45 45 46 45 46
26 25 25 25 24 25 26 26 26 27 28 29 28 29 27 26 26 26 27 28 29 30 31 31 32 33 35 36 36 37 37 37 38 39 41 42 44 45 46 46 46 46 46 46
26 26 25 25 25 25 26 26 27 27 28 29 27 29 29 26 25 25 26 27 28 30 31 31 32 32 33 34 35 37 38 38 39 39 41 43 44 45 46 47 47 48 47 47
27 26 26 26 26 26 26 27 27 28 28 28 27 28 28 25 24 25 26 26 28 29 29 30 30 30 31 32 34 35 37 38 39 40 41 42 43 45 46 47 47 48 48 48
27 26 25 25 26 27 26 27 27 29 29 28 28 28 26 24 24 25 26 27 28 28 29 28 28 29 31 32 32 33 35 37 39 40 41 41 41 43 45 46 47 47 47 48
26 26 24 24 24 25 26 26 27 29 30 29 28 27 25 25 25 25 26 27 28 28 28 28 28 29 30 31 32 32 33 35 38 39 41 42 42 43 45 46 47 48 48 49
24 25 24 23 24 25 25 25 26 28 29 30 29 27 25 25 25 26 26 27 28 27 27 28 28 29 30 31 31 32 33 35 37 39 40 41 42 43 45 45 46 48 49 50
24 24 23 22 22 23 24 26 27 28 29 30 30 27 25 25 25 26 27 27 27 27 28 28 28 29 30 30 31 32 33 34 35 37 38 39 41 42 43 44 46 47 48 49
23 24 24 23 23 23 24 26 27 28 29 29 30 28 25 25 26 26 27 27 27 27 27 28 29 29 30 31 31 32 33 33 34 35 36 38 39 40 42 43 44 45 46 47
23 24 24 24 23 24 25 25 26 27 28 29 29 27 25 26 26 27 27 27 27 28 28 29 30 30 30 31 31 32 33 34 34 35 36 37 38 39 40 41 42 44 45 46
25 25 24 24 24 24 24 25 26 27 28 29 28 27 26 27 27 27 27 27 28 28 28 29 29 30 30 31 32 33 34 34 35 34 35 36 36 38 38 39 40 42 44 45
25 25 24 24 24 24 24 25 25 27 27 28 27 27 26 27 27 27 27 27 28 29 28 29 29 29 30 31 32 32 33 33 34 34 34 35 36 37 38 38 39 40 42 43
25 26 25 24 23 24 24 24 24 25 26 26 26 25 25 27 28 28 28 28 28 29 29 29 29 29 30 30 31 31 32 33 34 34 34 34 34 35 35 36 37 38 39 40
25 25 25 24 23 24 23 21 23 24 24 25 25 24 25 27 28 27 27 28 28 28 28 28 28 29 29 29 29 30 32 32 33 32 32 33 33 33 34 34 35 35 36 37
24 24 24 25 24 25 22 21 22 23 23 24 24 24 25 26 27 27 27 27 28 28 28 28 28 28 28 28 29 30 31 31 31 31 31 31 32 31 31 31 31 31 31 32
23 24 25 25 25 25 23 22 23 24 24 23 24 25 26 27 27 26 27 27 26 27 27 27 27 27 27 27 28 29 30 30 29 28 28 29 29 29 28 28 27 28 28 29
22 23 24 25 25 25 24 23 24 25 25 24 24 25 25 26 26 26 26 27 26 26 26 27 26 26 26 27 27 28 28 28 28 27 27 27 27 26 25 25 26 26 26 26
22 23 24 24 26 25 24 24 24 24 24 24 24 25 25 25 25 25 26 26 26 27 27 26 26 26 26 26 27 27 27 27 27 27 27 26 25 24 24 24 25 24 24 24
22 23 23 24 25 25 24 24 24 23 24 24 24 24 25 25 25 25 25 26 26 26 26 26 26 27 27 26 26 26 26 26 27 26 26 25 24 24 24 24 24 24 23 23
23 23 23 23 23 23 24 24 24 23 23 23 23 24 25 25 25 25 25 26 26 26 26 27 26 26 26 26 26 26 26 26 26 25 25 25 25 24 24 24 24 23 23 23
23 23 23 23 22 22 23 24 24 24 23 23 24 25 25 25 25 25 26 26 26 26 26 26 25 25 25 25 25 25 24 24 24 24 24 24 24 24 24 23 22 21 21 21
22 23 23 23 22 23 23 24 25 25 25 24 25 25 25 25 25 25 25 25 25 25 25 25 25 24 24 24 24 24 23 23 24 24 24 24 23 23 23 22 21 21 21 20
22 22 23 22 23 23 23 24 24 25 25 25 25 25 25 25 25 25 25 25 25 25 25 24 24 23 23 23 23 24 23 23 23 23 23 23 23 22 21 20 20 20 20 20
Wind_Direction
274 271 268 267 266 266 266 267 266 264 264 264 264 264 264 264 262 261 261 260 259 258 259 259 259 257 256 255 254 255 253 251 249 248 249 249 250 251 252 252 252 252 254 254
273 272 269 267 268 267 267 267 267 265 265 266 265 264 263 264 263 261 261 261 260 260 260 260 260 260 258 257 255 255 254 254 252 251 251 252 252 253 254 254 253 252 252 253
274 272 269 268 269 267 267 267 268 267 266 266 266 265 264 263 263 264 264 264 263 262 261 261 261 261 260 259 257 256 256 254 254 254 253 254 256 255 255 255 254 254 253 253
274 272 269 267 267 268 267 267 267 267 266 266 267 267 264 264 263 265 266 266 266 265 263 263 263 263 261 260 258 258 257 256 255 255 254 255 256 257 256 255 255 255 254 254
274 271 269 267 266 267 266 266 267 268 267 267 268 268 268 267 267 267 267 267 267 267 266 265 265 264 262 260 260 258 258 257 257 257 257 257 258 257 256 255 256 255 254 254
273 269 268 267 267 267 266 266 267 266 267 267 269 270 271 270 269 267 267 268 269 269 268 266 266 264 262 261 260 259 259 258 259 260 260 259 259 257 256 256 257 257 256 256
272 268 267 267 267 266 267 266 267 268 268 269 270 270 273 272 269 266 267 268 270 270 269 268 266 264 263 261 260 260 260 261 262 262 262 262 262 260 259 257 257 258 258 258
274 269 267 266 266 266 266 265 266 268 270 270 270 271 273 272 270 269 269 270 271 272 271 269 267 265 264 263 263 263 263 263 263 264 265 265 264 262 261 259 258 259 259 260
278 273 270 268 267 267 265 264 267 269 271 271 271 271 270 270 271 271 271 272 273 273 272 270 269 267 266 265 266 268 267 266 265 266 266 266 265 265 263 261 259 259 259 260
279 274 271 270 268 266 266 266 267 268 271 272 273 273 272 272 272 271 272 272 272 273 272 273 272 269 268 268 268 270 270 269 269 269 269 268 268 267 265 263 262 260 260 260
280 276 273 271 269 268 266 265 266 268 269 272 274 275 275 276 275 274 272 272 271 272 274 275 274 272 271 270 271 271 272 272 272 273 272 271 270 269 267 266 265 263 261 261
281 278 277 274 271 269 268 268 268 269 270 272 274 275 274 274 274 275 273 272 272 275 276 276 277 275 273 272 273 272 273 274 274 274 274 274 273 271 269 268 266 265 264 262
280 278 279 276 273 271 270 269 269 270 270 272 274 274 272 272 273 274 272 273 275 277 278 278 278 277 275 274 274 274 274 274 275 277 277 276 275 273 273 271 268 267 266 264
279 279 278 278 275 273 270 270 270 270 271 273 274 273 270 271 273 275 274 275 277 278 280 280 279 278 277 275 276 277 278 276 278 279 278 278 277 275 274 273 270 268 267 266
279 280 278 277 278 276 274 272 271 272 274 275 274 272 269 270 273 274 276 277 277 279 280 281 280 279 278 278 278 279 280 279 279 280 280 280 280 278 276 275 272 270 268 267
278 279 278 278 277 277 276 273 273 274 275 276 274 271 270 271 274 276 277 278 277 279 281 283 282 280 280 281 280 280 281 282 282 283 283 282 282 280 278 277 275 272 270 269
278 279 280 278 276 276 275 275 274 274 275 276 275 274 273 273 275 278 280 278 278 279 281 284 283 282 282 281 282 283 284 285 285 284 284 283 283 282 280 279 277 274 272 270
279 280 280 279 277 275 277 276 276 276 275 275 276 276 276 276 277 278 280 279 278 279 280 283 284 284 283 283 285 287 287 286 286 286 286 286 285 285 284 282 280 278 276 273
279 280 280 279 279 279 278 279 278 277 276 276 277 277 276 277 278 279 280 281 281 281 281 283 284 285 286 286 286 288 289 288 289 289 288 288 288 286 286 285 284 282 280 277
279 280 280 280 280 280 282 282 281 278 277 278 278 278 278 278 278 280 280 281 283 284 284 284 282 283 285 287 289 290 290 289 289 289 289 290 289 288 287 287 287 285 283 279
279 280 281 281 281 281 282 281 280 279 280 280 278 278 279 280 281 281 281 282 282 284 284 284 282 282 285 287 290 291 291 290 290 289 289 288 289 289 290 290 289 288 286 282
280 281 282 283 282 281 280 280 279 279 279 280 280 279 280 281 281 282 283 282 282 283 284 284 283 283 284 287 290 291 291 291 291 290 289 288 288 289 291 291 290 289 285 284
279 280 281 283 284 282 280 280 280 278 280 279 279 280 281 280 280 281 282 282 282 283 283 283 283 283 284 286 288 289 291 292 291 290 290 289 287 288 289 290 290 288 285 284
280 280 280 283 284 282 281 280 280 279 280 281 281 282 283 281 280 280 282 282 282 283 283 284 284 284 285 287 287 288 290 290 290 290 290 289 288 288 289 290 289 287 286 286
280 280 281 283 284 283 283 282 280 279 279 282 282 282 283 281 280 281 282 282 282 283 284 286 286 285 286 287 289 289 290 291 290 290 291 290 290 290 288 287 287 287 285 286
281 283 283 283 283 283 284 283 280 278 280 282 284 284 283 282 281 282 282 281 282 284 285 286 286 285 286 287 288 290 290 290 290 290 290 290 291 290 288 286 286 286 286 285
Height
5680 5681 5680 5680 5680 5679 5679 5679 5680 5680 5679 5680 5680 5682 5682 5682 5682 5682 5683 5684 5685 5686 5687 5688 5689 5690 5691 5693 5694 5695 5697 5699 5701 5703 5706 5708 5711 5713 5715 5717 5719 5721 5723 5725
5674 5673 5674 5673 5673 5672 5672 5673 5673 5673 5672 5673 5673 5675 5675 5675 5675 5676 5676 5677 5677 5678 5680 5681 5682 5683 5684 5685 5686 5687 5688 5690 5692 5695 5697 5699 5701 5704 5705 5707 5709 5711 5713 5715
5666 5667 5666 5666 5666 5666 5666 5666 5666 5666 5666 5666 5667 5668 5669 5669 5669 5669 5669 5669 5670 5671 5672 5673 5674 5675 5675 5676 5677 5678 5680 5681 5683 5685 5687 5689 5691 5693 5695 5697 5699 5700 5702 5704
5659 5659 5659 5659 5659 5659 5660 5660 5660 5659 5659 5659 5660 5660 5663 5663 5662 5662 5662 5663 5663 5664 5665 5666 5666 5667 5667 5668 5669 5670 5671 5672 5674 5675 5677 5679 5681 5683 5685 5686 5688 5689 5691 5693
5653 5653 5652 5653 5654 5653 5653 5653 5653 5653 5652 5652 5653 5652 5655 5656 5656 5655 5655 5655 5656 5656 5657 5658 5658 5658 5659 5659 5660 5661 5662 5663 5665 5666 5667 5668 5670 5672 5673 5675 5677 5678 5680 5682
5646 5646 5646 5646 5647 5647 5646 5647 5646 5646 5645 5646 5647 5646 5647 5649 5649 5649 5648 5648 5648 5648 5649 5649 5649 5650 5650 5651 5651 5652 5653 5654 5655 5656 5657 5658 5659 5660 5661 5663 5665 5667 5669 5670
5639 5639 5639 5640 5640 5640 5640 5640 5640 5638 5638 5639 5640 5639 5641 5642 5642 5642 5641 5641 5641 5641 5641 5641 5641 5641 5641 5642 5642 5643 5644 5645 5645 5646 5646 5647 5648 5648 5650 5651 5653 5655 5657 5658
5631 5633 5633 5633 5633 5633 5633 5633 5634 5633 5632 5633 5633 5632 5635 5635 5635 5634 5634 5634 5633 5633 5633 5632 5632 5633 5633 5633 5633 5634 5634 5635 5636 5636 5636 5636 5637 5637 5638 5639 5641 5643 5644 5646
5625 5626 5626 5626 5626 5626 5626 5626 5627 5626 5625 5625 5626 5627 5629 5629 5628 5628 5628 5627 5626 5625 5625 5624 5624 5624 5624 5625 5625 5625 5625 5625 5626 5625 5625 5625 5625 5625 5626 5627 5628 5630 5632 5633
5618 5619 5619 5619 5619 5619 5620 5620 5620 5619 5617 5617 5619 5620 5622 5622 5622 5621 5621 5620 5619 5618 5617 5617 5616 5616 5616 5616 5616 5616 5616 5615 5615 5615 5614 5614 5614 5614 5614 5614 5615 5617 5619 5620
5612 5612 5613 5613 5613 5613 5614 5614 5612 5612 5612 5612 5611 5616 5616 5615 5615 5614 5613 5612 5612 5611 5610 5609 5608 5608 5608 5608 5607 5607 5606 5606 5605 5604 5604 5603 5603 5602 5602 5602 5602 5604 5605 5607
5606 5606 5606 5606 5606 5606 5606 5607 5606 5606 5606 5605 5605 5610 5609 5609 5607 5606 5606 5605 5604 5604 5603 5602 5601 5600 5599 5599 5598 5598 5597 5596 5596 5594 5593 5593 5592 5591 5590 5590 5590 5591 5593 5594
5601 5600 5600 5600 5602 5600 5600 5600 5599 5599 5599 5598 5598 5603 5602 5601 5600 5599 5598 5598 5597 5596 5595 5594 5593 5592 5591 5591 5590 5589 5588 5587 5586 5585 5583 5582 5581 5580 5579 5578 5578 5579 5580 5581
5594 5594 5595 5594 5593 5593 5593 5593 5593 5592 5592 5592 5592 5594 5595 5593 5593 5592 5591 5590 5589 5589 5588 5586 5585 5584 5583 5582 5581 5580 5579 5578 5576 5575 5573 5571 5570 5569 5568 5567 5566 5566 5567 5568
5588 5588 5587 5587 5587 5587 5587 5587 5586 5585 5585 5585 5586 5586 5587 5586 5585 5585 5584 5583 5582 5581 5580 5579 5577 5576 5575 5574 5573 5572 5570 5568 5567 5565 5563 5562 5560 5558 5557 5555 5555 5555 5555 5556
5582 5582 5581 5581 5581 5580 5580 5580 5580 5579 5579 5578 5578 5579 5579 5578 5578 5577 5576 5575 5574 5573 5572 5571 5569 5568 5567 5565 5564 5563 5561 5559 5558 5556 5554 5552 5550 5548 5546 5545 5544 5543 5543 5544
5576 5576 5575 5575 5575 5573 5574 5575 5574 5574 5573 5573 5572 5573 5572 5571 5570 5570 5569 5568 5567 5566 5565 5563 5562 5561 5559 5558 5556 5555 5553 5551 5549 5547 5545 5543 5541 5539 5537 5535 5534 5533 5533 5533
5571 5570 5569 5568 5569 5568 5572 5569 5569 5568 5567 5567 5566 5566 5565 5564 5564 5563 5562 5561 5560 5559 5558 5556 5555 5553 5552 5550 5549 5547 5545 5542 5540 5538 5537 5535 5532 5530 5528 5526 5525 5524 5524 5524
5565 5564 5563 5562 5561 5561 5564 5564 5562 5561 5561 5561 5560 5559 5559 5558 5557 5557 5555 5554 5553 5552 5551 5549 5548 5546 5545 5543 5541 5539 5537 5534 5532 5531 5529 5527 5525 5523 5521 5519 5518 5516 5516 5515
5560 5558 5558 5556 5555 5555 5559 5557 5555 5555 5555 5555 5554 5553 5552 5551 5551 5551 5549 5547 5546 5545 5543 5542 5541 5539 5538 5536 5534 5532 5529 5527 5525 5524 5522 5520 5518 5516 5514 5513 5511 5510 5509 5508
5554 5553 5552 5550 5549 5549 5551 5550 5549 5550 5550 5548 5547 5546 5545 5545 5544 5544 5542 5541 5540 5538 5537 5535 5534 5533 5531 5529 5527 5524 5522 5521 5519 5517 5515 5513 5511 5510 5508 5506 5505 5504 5502 5502
5548 5547 5546 5544 5543 5545 5544 5543 5543 5543 5542 5541 5540 5539 5539 5538 5537 5536 5535 5534 5533 5531 5530 5528 5527 5525 5524 5522 5520 5518 5516 5514 5512 5511 5509 5507 5505 5504 5502 5501 5499 5498 5496 5496
5542 5542 5540 5539 5540 5538 5537 5536 5535 5535 5535 5534 5533 5533 5532 5531 5530 5529 5528 5527 5526 5525 5523 5521 5520 5518 5517 5516 5514 5512 5510 5508 5506 5504 5502 5501 5499 5498 5496 5495 5493 5492 5491 5490
5535 5535 5533 5533 5533 5532 5530 5529 5529 5528 5528 5527 5527 5526 5524 5523 5523 5522 5521 5520 5519 5517 5516 5514 5513 5511 5510 5509 5507 5505 5504 5502 5500 5498 5496 5495 5493 5492 5490 5489 5487 5486 5485 5484
5529 5528 5527 5526 5526 5525 5524 5523 5522 5522 5521 5520 5519 5518 5517 5516 5515 5515 5514 5512 5511 5510 5508 5507 5506 5504 5503 5502 5501 5499 5497 5495 5494 5492 5490 5489 5487 5486 5484 5483 5482 5480 5479 5479
5524 5523 5522 5521 5520 5518 5518 5516 5516 5515 5514 5513 5512 5511 5510 5509 5508 5507 5506 5505 5504 5502 5501 5500 5499 5497 5496 5495 5494 5492 5491 5489 5487 5486 5484 5483 5481 5480 5479 5477 5476 5475 5474 5473